Wind_Speed
5 5 6 8 9 9 9 5 3 6 7 8 9 10 11 12 12 12 11 11 9 7 6 5 5 6 7 9 12 14 16 18 20 22 24 26 27 28 29 30 30 31 32 33
8 4 6 8 7 1 3 5 5 4 2 4 4 5 6 6 6 5 4 3 4 5 7 9 11 13 16 17 20 22 24 25 27 28 29 30 32 34 36 38 39 39 39 39
4 7 8 7 3 3 4 2 1 4 5 2 2 4 4 3 3 3 5 7 10 12 14 16 18 20 21 23 25 26 28 29 29 30 33 34 34 35 37 38 40 42 42 43
7 7 1 4 5 5 5 6 7 6 6 7 8 10 9 9 9 10 11 14 16 18 20 22 23 24 27 29 30 31 33 35 37 38 38 39 40 41 41 41 41 42 45 46
4 6 11 9 6 7 7 8 8 7 7 7 8 10 11 11 13 14 15 16 18 21 23 25 27 28 30 33 35 37 38 39 41 41 41 41 41 43 45 46 47 47 47 48
4 4 5 4 4 5 7 14 9 8 8 7 8 10 9 11 13 15 18 21 23 24 26 28 29 31 32 33 35 38 39 40 41 43 44 44 45 47 47 49 50 52 53 52
12 7 8 10 8 7 5 3 4 6 7 9 10 11 11 13 16 18 20 22 23 25 27 29 32 34 35 36 38 41 41 42 42 42 43 45 47 49 52 54 55 55 55 53
6 7 6 6 5 6 5 8 10 10 11 11 11 12 14 16 18 20 22 24 26 28 30 32 34 36 38 39 41 42 42 42 42 42 43 46 48 48 49 51 53 56 56 54
7 6 8 10 12 16 18 16 13 13 13 14 15 16 17 19 21 23 25 27 29 31 33 35 39 42 44 45 47 48 49 49 47 43 40 39 43 44 46 46 47 47 48 49
21 8 8 9 13 14 14 14 15 15 16 17 18 19 20 21 24 26 29 31 33 36 39 40 42 43 44 47 48 50 51 51 50 49 46 42 39 40 40 40 42 42 43 43
32 28 27 26 23 21 21 20 17 16 18 19 20 20 21 24 27 29 32 34 37 40 41 41 43 44 45 47 50 52 52 52 50 48 46 42 38 38 38 36 35 35 34 36
27 14 20 20 19 20 18 17 18 18 19 20 21 22 24 26 28 31 33 37 39 40 42 43 44 46 47 48 49 49 49 48 46 45 42 40 38 36 33 34 31 31 30 30
22 21 22 17 15 16 16 17 19 21 21 21 21 23 25 27 29 33 36 37 39 40 41 43 45 45 44 41 39 38 38 37 36 36 35 35 34 35 35 28 30 28 28 28
29 32 31 26 23 21 22 22 22 22 21 21 23 25 27 29 32 34 35 37 38 39 41 41 39 35 34 34 35 34 33 33 33 32 31 30 30 31 32 30 28 27 26 28
18 20 27 28 26 24 24 23 21 20 21 22 25 26 29 32 34 34 35 36 37 38 37 34 31 31 33 35 35 33 31 31 30 28 26 25 25 26 25 23 25 26 26 24
20 17 13 17 19 18 16 17 19 19 20 23 25 28 30 32 32 34 34 35 34 31 29 28 30 33 35 34 33 31 30 29 28 27 26 24 22 20 18 23 29 27 24 24
18 15 11 8 8 9 12 17 17 18 20 23 26 29 30 30 31 32 32 30 29 29 31 32 32 34 34 34 33 32 32 30 28 27 25 24 23 22 24 27 28 26 24 23
22 17 11 10 10 15 16 15 17 19 21 25 28 29 29 29 29 29 28 25 26 28 29 31 34 36 36 35 34 33 33 33 30 28 26 24 23 23 24 26 26 28 29 27
20 25 23 21 22 17 14 16 18 20 24 26 28 28 29 29 28 28 27 26 25 25 27 31 34 37 35 34 33 32 32 33 32 29 28 27 26 25 25 25 25 25 26 25
1 7 11 12 11 12 14 16 19 22 24 26 27 28 29 27 27 26 25 25 25 26 29 33 35 38 35 32 31 31 31 30 30 29 28 27 27 27 26 26 27 27 28 27
5 5 6 8 11 13 14 17 20 23 24 26 27 28 27 26 25 25 23 22 24 26 29 32 37 38 35 31 30 31 31 31 30 30 28 27 27 26 26 26 25 26 27 27
11 11 11 12 12 14 16 18 20 22 25 26 27 27 26 25 24 25 24 22 23 26 28 32 36 37 35 30 30 31 31 32 32 31 28 26 25 25 24 24 25 27 25 22
14 13 13 14 14 16 18 20 23 24 25 27 27 26 25 25 23 22 21 23 23 25 28 32 35 36 34 29 30 30 31 32 31 30 28 26 24 24 23 23 21 19 17 15
17 16 15 15 16 17 17 20 24 24 26 26 25 25 23 23 25 24 22 21 22 25 27 31 35 35 32 28 28 30 31 31 31 29 26 24 23 21 19 17 15 14 12 11
18 18 18 17 17 15 17 22 25 25 26 26 24 23 22 21 21 23 22 22 22 24 25 29 34 34 32 28 28 29 31 31 30 28 26 23 21 18 16 14 12 10 10 10
21 20 20 19 17 16 18 23 27 25 25 25 25 22 22 22 22 22 22 21 22 23 25 27 32 33 30 26 27 28 29 28 26 25 24 21 19 17 15 13 11 9 8 7
22 21 21 21 19 20 19 19 28 26 24 24 24 23 21 22 22 22 21 21 22 23 24 25 29 32 29 25 26 26 26 25 24 23 22 20 18 17 15 14 11 9 7 5
Wind_Direction
315 320 320 333 356 18 35 63 44 115 95 84 81 75 75 79 75 75 74 68 66 60 53 33 358 335 317 304 299 296 293 287 285 286 286 283 280 277 275 273 271 269 271 271
308 292 300 303 336 345 49 66 80 89 58 95 72 73 68 58 61 62 46 19 349 328 319 307 300 297 296 295 292 290 290 288 287 285 282 278 276 277 277 276 276 273 272 269
267 312 299 275 264 219 255 281 256 255 317 298 7 355 348 331 312 308 306 305 303 301 298 298 298 295 293 293 294 294 293 292 289 284 282 281 279 277 275 274 274 273 273 270
288 314 335 223 291 267 256 241 249 278 301 317 323 324 321 314 312 305 304 306 308 310 309 306 303 302 303 302 299 297 296 294 293 293 292 290 287 283 280 276 271 268 267 268
277 294 285 270 255 242 261 265 266 264 258 263 275 288 300 303 304 303 302 301 301 301 300 300 300 299 299 299 299 296 294 293 291 290 288 284 280 278 277 275 274 272 268 264
263 263 237 207 232 252 258 271 249 243 251 260 268 274 278 290 294 294 294 296 294 293 294 294 293 292 291 290 290 288 287 286 285 284 283 281 279 275 271 265 261 260 262 262
255 257 271 245 253 251 236 286 231 249 254 263 270 275 276 277 277 277 280 281 283 287 290 294 298 301 301 299 297 296 294 292 290 288 284 276 271 269 268 269 270 272 271 271
223 234 280 219 233 237 274 288 283 279 280 278 277 280 283 284 285 288 291 294 295 296 297 298 298 299 300 300 297 296 296 295 294 290 286 282 279 276 273 272 270 271 273 274
239 261 277 271 279 283 286 283 280 279 282 285 287 287 288 289 290 292 295 298 301 303 306 309 309 311 312 312 311 309 308 306 304 298 292 283 280 278 277 277 277 275 274 273
280 276 278 278 287 288 286 281 278 280 283 284 285 288 292 296 298 302 306 307 310 312 314 314 312 313 313 311 309 307 305 304 301 299 296 292 286 280 275 273 273 274 275 275
279 276 279 278 282 277 274 270 273 278 283 284 287 291 298 302 306 309 309 312 313 313 314 314 314 314 313 309 306 305 304 302 301 298 296 293 286 281 278 277 278 276 274 275
280 291 276 273 263 262 263 265 274 280 283 287 291 295 300 304 306 309 310 313 314 315 315 315 314 313 311 310 309 307 305 304 302 299 296 291 287 281 276 276 277 278 279 277
279 277 283 283 266 257 263 273 280 283 285 288 290 295 301 305 308 311 314 316 316 316 316 315 315 316 315 315 315 314 312 310 306 303 297 290 285 283 280 270 274 278 280 279
272 266 264 262 266 268 273 279 285 285 286 290 293 300 305 309 312 314 316 317 318 317 317 318 320 321 322 323 322 321 320 318 314 310 305 298 291 285 283 281 275 269 273 279
270 271 261 252 257 261 268 276 280 284 289 292 299 304 308 312 315 317 318 320 320 320 323 326 328 328 329 327 324 325 325 322 317 314 308 301 296 293 293 287 282 281 277 276
281 277 267 245 246 257 265 274 280 284 288 296 301 307 312 315 317 319 322 323 324 326 330 332 332 332 330 327 328 328 325 322 319 317 312 304 295 286 296 299 290 287 285 288
253 260 245 234 235 259 278 281 279 285 293 299 306 311 315 318 320 322 322 323 326 330 331 332 335 333 329 327 326 326 325 324 321 316 312 307 298 288 279 281 288 289 289 289
232 239 238 236 254 288 288 279 284 293 301 308 313 316 317 319 320 320 320 324 331 334 337 338 338 334 331 329 326 324 322 319 318 316 313 308 302 295 289 287 286 284 284 284
233 230 240 256 281 282 281 289 296 304 310 314 316 316 318 319 320 320 322 328 334 338 339 340 337 334 331 329 327 325 323 320 316 312 308 306 303 298 295 294 294 292 293 291
305 243 250 258 270 281 290 299 308 312 315 316 317 317 318 320 320 321 324 326 332 338 339 340 338 338 335 332 330 328 326 325 323 318 314 309 304 300 296 294 292 293 294 294
327 306 281 277 282 290 299 308 314 314 319 319 317 317 318 319 318 319 322 325 329 334 333 334 337 338 337 331 329 331 331 330 328 324 320 314 307 302 298 295 293 294 298 296
313 307 297 292 293 298 305 313 313 322 320 320 316 317 317 317 319 319 319 323 328 332 333 333 336 337 336 332 332 332 333 333 331 328 324 320 314 310 306 301 297 297 297 295
295 300 298 297 297 305 313 317 323 317 321 317 316 318 316 315 317 317 314 318 325 330 336 337 337 337 336 333 334 335 335 334 333 331 329 325 319 315 311 307 304 302 298 295
290 293 292 294 295 303 317 317 309 317 318 313 316 317 317 317 315 318 317 320 326 330 333 339 338 339 338 335 336 337 338 337 337 337 334 331 329 327 325 321 316 310 306 303
280 284 287 289 288 302 309 307 311 316 313 312 314 316 317 317 314 313 315 320 325 331 334 336 339 340 340 337 337 339 341 343 345 343 342 341 340 339 337 333 327 320 311 306
279 281 282 282 285 293 300 309 309 310 311 311 314 317 318 317 315 314 316 320 322 326 332 335 340 340 340 338 340 341 344 348 350 350 351 354 354 352 348 345 341 336 329 320
278 276 280 279 278 284 296 302 305 306 310 312 314 317 317 315 313 314 316 319 324 325 326 331 336 339 340 340 343 343 346 352 356 358 359 0 1 1 1 360 358 357 4 18
Height
3056 3054 3051 3049 3046 3043 3040 3038 3038 3038 3037 3036 3035 3035 3035 3034 3034 3033 3033 3033 3034 3034 3035 3035 3035 3035 3035 3035 3034 3033 3032 3032 3031 3030 3028 3027 3026 3025 3025 3024 3023 3023 3022 3020
3053 3052 3050 3048 3046 3044 3042 3040 3039 3039 3038 3037 3036 3036 3037 3036 3036 3036 3036 3036 3035 3035 3034 3034 3034 3033 3032 3031 3030 3030 3029 3027 3025 3024 3024 3023 3021 3018 3015 3013 3013 3012 3012 3012
3051 3050 3048 3047 3044 3043 3041 3040 3040 3039 3038 3037 3036 3036 3036 3036 3037 3037 3036 3034 3034 3033 3032 3031 3030 3029 3027 3025 3023 3021 3020 3019 3017 3017 3015 3013 3011 3009 3007 3006 3005 3003 3001 2999
3050 3048 3049 3043 3042 3041 3040 3039 3039 3037 3036 3035 3034 3033 3034 3034 3034 3033 3032 3031 3031 3029 3028 3026 3025 3023 3021 3019 3017 3016 3014 3012 3010 3007 3004 3002 3001 2999 2997 2994 2992 2991 2989 2987
3050 3047 3043 3040 3040 3040 3039 3038 3036 3036 3035 3035 3034 3034 3034 3032 3031 3031 3030 3028 3027 3026 3024 3022 3020 3017 3015 3013 3010 3008 3005 3003 3000 2997 2994 2991 2990 2988 2984 2981 2979 2977 2975 2973
3050 3048 3042 3038 3038 3038 3037 3034 3033 3033 3033 3033 3033 3033 3033 3032 3031 3029 3028 3025 3024 3022 3020 3018 3016 3014 3012 3009 3005 3000 2997 2994 2990 2985 2981 2977 2973 2971 2967 2965 2963 2960 2959 2957
3048 3046 3038 3036 3037 3037 3038 3037 3032 3032 3032 3032 3032 3032 3031 3029 3028 3027 3025 3023 3021 3018 3015 3011 3007 3003 2999 2995 2991 2986 2982 2978 2974 2968 2963 2960 2956 2954 2950 2947 2944 2943 2942 2939
3044 3043 3038 3035 3036 3037 3035 3032 3031 3030 3029 3029 3028 3028 3026 3025 3023 3021 3019 3017 3014 3012 3009 3005 3001 2996 2992 2988 2981 2975 2970 2965 2961 2957 2951 2946 2942 2939 2936 2932 2929 2927 2924 2924
3041 3036 3034 3034 3034 3033 3031 3030 3029 3028 3026 3025 3024 3023 3021 3020 3017 3015 3012 3009 3005 3001 2998 2993 2986 2980 2973 2967 2960 2954 2949 2945 2942 2940 2938 2934 2928 2924 2921 2917 2913 2911 2909 2908
3035 3031 3029 3029 3028 3028 3026 3026 3024 3024 3022 3021 3020 3018 3016 3013 3010 3007 3003 2999 2995 2990 2985 2981 2975 2970 2964 2957 2950 2943 2938 2933 2929 2924 2920 2918 2913 2909 2906 2905 2902 2899 2897 2895
3025 3025 3024 3023 3023 3022 3021 3021 3020 3019 3018 3016 3014 3012 3010 3007 3004 3001 2997 2992 2988 2983 2977 2972 2965 2960 2954 2947 2939 2932 2926 2920 2916 2911 2907 2904 2902 2898 2894 2892 2890 2887 2886 2884
3016 3018 3015 3015 3016 3016 3016 3016 3015 3014 3012 3011 3009 3007 3005 3002 2998 2994 2990 2985 2980 2974 2967 2961 2955 2949 2942 2935 2928 2920 2913 2907 2902 2898 2894 2892 2889 2887 2885 2883 2881 2879 2877 2875
3012 3012 3011 3010 3010 3010 3010 3010 3009 3008 3006 3005 3003 3001 2999 2996 2991 2986 2981 2976 2971 2965 2958 2952 2945 2938 2931 2924 2917 2910 2904 2898 2891 2887 2883 2880 2878 2875 2874 2875 2872 2871 2869 2867
3001 3001 3001 3004 3004 3004 3004 3003 3003 3001 3000 2999 2997 2994 2992 2989 2985 2979 2974 2969 2963 2956 2950 2942 2935 2929 2922 2915 2909 2902 2895 2889 2883 2878 2874 2871 2869 2867 2865 2864 2864 2864 2862 2859
2993 2992 2992 2994 2996 2997 2997 2997 2996 2995 2994 2993 2991 2988 2985 2981 2976 2971 2965 2960 2954 2947 2940 2933 2927 2921 2914 2908 2902 2895 2888 2883 2877 2872 2868 2864 2862 2859 2858 2856 2855 2854 2853 2852
2987 2986 2985 2986 2988 2990 2991 2992 2991 2990 2989 2987 2984 2981 2977 2973 2968 2962 2957 2951 2946 2940 2934 2928 2922 2915 2908 2902 2895 2889 2884 2878 2872 2867 2862 2858 2856 2853 2852 2850 2848 2846 2845 2843
2979 2981 2981 2982 2984 2985 2986 2986 2985 2985 2983 2981 2978 2974 2970 2965 2960 2955 2950 2945 2939 2933 2927 2921 2916 2910 2903 2896 2890 2883 2878 2872 2867 2862 2857 2853 2850 2847 2845 2843 2841 2838 2837 2835
2972 2975 2977 2979 2980 2981 2980 2980 2980 2979 2977 2974 2970 2966 2962 2958 2954 2950 2945 2941 2934 2927 2921 2915 2909 2904 2897 2889 2883 2878 2872 2867 2862 2856 2852 2848 2844 2841 2838 2835 2833 2830 2829 2827
2966 2969 2972 2974 2975 2975 2975 2974 2974 2972 2970 2966 2963 2959 2955 2951 2947 2943 2937 2932 2928 2922 2917 2911 2906 2899 2891 2884 2877 2872 2866 2861 2855 2850 2845 2841 2837 2834 2831 2828 2825 2823 2820 2819
2965 2966 2969 2970 2971 2971 2970 2969 2967 2966 2962 2959 2956 2952 2949 2945 2940 2936 2931 2926 2921 2916 2910 2905 2900 2892 2884 2878 2873 2867 2861 2855 2849 2843 2838 2834 2830 2827 2824 2821 2818 2815 2813 2810
2967 2967 2967 2967 2967 2967 2965 2964 2961 2959 2955 2952 2949 2946 2942 2938 2934 2930 2926 2921 2916 2911 2906 2900 2894 2887 2879 2874 2868 2862 2856 2850 2844 2837 2832 2827 2823 2819 2816 2813 2810 2807 2804 2801
2966 2966 2966 2965 2963 2962 2961 2958 2956 2952 2950 2946 2943 2940 2935 2932 2928 2923 2919 2917 2912 2907 2901 2895 2889 2882 2875 2869 2863 2857 2851 2844 2838 2832 2826 2821 2816 2812 2808 2805 2802 2799 2796 2794
2963 2961 2960 2960 2959 2958 2955 2953 2950 2948 2943 2941 2937 2934 2930 2925 2923 2920 2916 2911 2906 2902 2896 2891 2885 2877 2871 2865 2859 2853 2847 2840 2833 2827 2821 2815 2810 2806 2802 2798 2795 2792 2790 2788
2958 2957 2955 2953 2953 2952 2950 2949 2946 2941 2938 2935 2931 2928 2924 2920 2914 2913 2910 2906 2901 2897 2891 2886 2881 2873 2867 2861 2855 2849 2843 2836 2829 2823 2817 2811 2806 2801 2797 2793 2790 2788 2786 2785
2952 2951 2950 2949 2947 2945 2944 2942 2938 2934 2932 2929 2925 2921 2918 2915 2912 2908 2904 2900 2896 2891 2887 2882 2876 2869 2863 2857 2852 2846 2840 2833 2826 2820 2814 2808 2803 2799 2795 2792 2789 2787 2785 2783
2946 2944 2943 2942 2941 2939 2936 2935 2932 2929 2925 2923 2919 2915 2912 2909 2906 2903 2899 2895 2891 2886 2882 2878 2873 2867 2860 2855 2849 2844 2838 2831 2825 2819 2813 2808 2803 2798 2794 2791 2788 2785 2783 2782
2939 2937 2935 2935 2934 2931 2930 2928 2926 2923 2919 2916 2913 2909 2906 2903 2901 2898 2894 2889 2885 2881 2878 2873 2869 2864 2858 2852 2847 2842 2837 2830 2824 2819 2814 2809 2804 2799 2795 2792 2788 2786 2783 2782